This demonstration page uses our WeatherBlox Daily Observations layout. Learn more.

Left ArrowRight Arrow

44.8408, -93.29828

Hourly Observations for July 12, 2017

Temp ( °F °C ) Dew Point ( °F °C ) Humidity (%) Winds ( mph kmh ) Pressure ( in mb ) Visibility ( mi km ) Precip ( " mm )
12:53 am 00:53 Mostly Cloudy 78 25.6 68 20 71 71 S 9 15 29.72 1006 10 16 0.00 0.00
1:44 am 01:44 Cloudy 77 25 71 21.7 82 82 S 8 13 29.68 1005 10 16 0.00 0.03
1:53 am 01:53 Mostly Cloudy 77 25 71 21.7 82 82 S 10 17 29.69 1005 10 16 0.00 0.03
1:58 am 01:58 Cloudy with Nearby Thunderstorms 77 25 71 21.7 82 82 S 9 15 29.68 1005 10 16 0.00 0.03
2:09 am 02:09 Cloudy with Thunderstorms 77 25 72 22.2 85 85 S 8 13 29.68 1005 8 13 0.01 0.25
2:53 am 02:53 Cloudy with Thunderstorms 77 25 74 23.3 90 90 N 17 28 29.72 1006 10 16 0.03 0.76
3:02 am 03:02 Cloudy 72 22.2 65 18.3 79 79 N 22 35 29.71 1006 10 16 0.00 0.00
3:53 am 03:53 Mostly Cloudy 70 21.1 64 17.8 82 82 ENE 7 11 29.72 1007 10 16 0.00 0.00
4:53 am 04:53 Partly Cloudy 71 21.7 63 17.2 76 76 S 3 6 29.72 1006 10 16 0.00 0.00
5:53 am 05:53 Partly Cloudy 70 21.1 63 17.2 79 79 VRB 5 7 29.74 1007 10 16 0.00 0.00
6:53 am 06:53 Partly Cloudy 71 21.7 64 17.8 79 79 SSE 6 9 29.75 1008 10 16 0.00 0.00
7:53 am 07:53 Partly Cloudy 75 23.9 65 18.3 71 71 S 7 11 29.77 1008 10 16 0.00 0.00
8:53 am 08:53 Partly Cloudy 77 25 65 18.3 66 66 VRB 5 7 29.77 1008 10 16 0.00 0.00
9:53 am 09:53 Mostly Sunny 82 27.8 65 18.3 56 56 SSW 5 7 29.77 1008 10 16 0.00 0.00
10:53 am 10:53 Mostly Sunny 86 30 66 18.9 51 51 WNW 10 17 29.77 1008 10 16 0.00 0.00
11:53 am 11:53 Partly Cloudy 84 28.9 66 18.9 55 55 NW 12 19 29.78 1009 10 16 0.00 0.00
12:53 pm 12:53 Partly Cloudy 88 31.1 68 20 52 52 W 13 20 29.79 1009 10 16 0.00 0.00
1:53 pm 13:53 Partly Cloudy 88 31.1 66 18.9 48 48 WNW 12 19 29.79 1009 10 16 0.00 0.00
2:53 pm 14:53 Partly Cloudy 88 31.1 65 18.3 46 46 W 14 22 29.80 1009 10 16 0.00 0.00
3:53 pm 15:53 Partly Cloudy 87 30.6 64 17.8 46 46 WNW 17 28 29.82 1010 10 16 0.00 0.00
4:53 pm 16:53 Mostly Cloudy 86 30 65 18.3 49 49 WNW 15 24 29.83 1010 10 16 0.00 0.00
5:53 pm 17:53 Mostly Cloudy 84 28.9 65 18.3 53 53 WNW 17 28 29.85 1011 10 16 0.00 0.00
6:53 pm 18:53 Mostly Cloudy 79 26.1 62 16.7 56 56 WNW 20 31 29.87 1012 10 16 0.00 0.00
7:53 pm 19:53 Mostly Cloudy 76 24.4 60 15.6 58 58 NW 20 31 29.89 1012 10 16 0.00 0.00
8:53 pm 20:53 Partly Cloudy 73 22.8 59 15 62 62 NW 12 19 29.91 1013 10 16 0.00 0.00
9:53 pm 21:53 Cloudy 73 22.8 59 15 62 62 NW 8 13 29.93 1014 10 16 0.00 0.00
10:53 pm 22:53 Cloudy 72 22.2 60 15.6 66 66 WNW 12 19 29.93 1014 10 16 0.00 0.00
11:53 pm 23:53 Mostly Cloudy 71 21.7 60 15.6 68 68 NW 12 19 29.93 1014 10 16 0.00 0.00

Powered by AerisWeather